This is the latest recevied weather packets stored in our database for station/object WB4ZUT. If no packets are shown the sender has not sent any weather packets the latest 10 day(s).
| Time | Temp. | Humidity | Pressure | Rain* | Wind** | Luminosity | Snow |
|---|---|---|---|---|---|---|---|
| 1778002898 | 16.11° C | 99% | 1008.3 hPa | 1.78 mm | - | 109 W/m² | - |
| 1778002595 | 16.11° C | 98% | 1008.3 hPa | 1.78 mm | - | 107 W/m² | - |
| 1778002292 | 16.11° C | 99% | 1008.4 hPa | 1.27 mm | - | 128 W/m² | - |
| 1778001990 | 16.11° C | 98% | 1008.2 hPa | 1.27 mm | - | 172 W/m² | - |
| 1778001686 | 16.11° C | 98% | 1008.2 hPa | 0 mm | - | 169 W/m² | - |
| 1778001381 | 16.11° C | 98% | 1008.4 hPa | 1.78 mm | - | 112 W/m² | - |
| 1778001078 | 16.11° C | 98% | 1008.4 hPa | 1.78 mm | - | 173 W/m² | - |
| 1778000776 | 16.11° C | 98% | 1008.4 hPa | 0 mm | - | 170 W/m² | - |
| 1778000472 | 16.11° C | 98% | 1008.6 hPa | 0 mm | - | 151 W/m² | - |
| 1778000167 | 16.11° C | 98% | 1008.7 hPa | 1.27 mm | - | 133 W/m² | - |
| 1777999863 | 16.11° C | 98% | 1008.8 hPa | 1.27 mm | - | 120 W/m² | - |
| 1777999559 | 16.11° C | 98% | 1008.8 hPa | 1.78 mm | - | 90 W/m² | - |
| 1777999256 | 16.11° C | 98% | 1008.7 hPa | 1.78 mm | - | 100 W/m² | - |
| 1777998955 | 16.11° C | 98% | 1008.9 hPa | 0 mm | - | 109 W/m² | - |
| 1777998652 | 16.11° C | 97% | 1009.3 hPa | 0 mm | - | 85 W/m² | - |
| 1777998350 | 16.11° C | 97% | 1009.2 hPa | 1.27 mm | - | 90 W/m² | - |
| 1777998047 | 16.11° C | 97% | 1008.9 hPa | 1.27 mm | - | 118 W/m² | - |
| 1777997744 | 15.56° C | 97% | 1009 hPa | 0 mm | - | 123 W/m² | - |
| 1777997441 | 15.56° C | 97% | 1009 hPa | 1.78 mm | - | 120 W/m² | - |
| 1777997139 | 15.56° C | 97% | 1009.2 hPa | 1.78 mm | - | 104 W/m² | - |
| 1777996836 | 15.56° C | 96% | 1009 hPa | 1.27 mm | - | 85 W/m² | - |
| 1777996532 | 15.56° C | 96% | 1009.3 hPa | 4.32 mm | - | 77 W/m² | - |
| 1777996229 | 15.56° C | 96% | 1009.5 hPa | 7.87 mm | - | 95 W/m² | - |
| 1777995925 | 15.56° C | 95% | 1009.4 hPa | 9.65 mm | - | 85 W/m² | - |
| 1777995621 | 15.56° C | 95% | 1009.9 hPa | 7.87 mm | - | 63 W/m² | - |
* Rain latest hour (hover to see other rain measurements)
** Current wind speed in m/s (hover to see current wind gust speed)